Location: Caseificio
(44.7500°N, 11.0500°E)
Time: 17:15:29
(UTC+00:00)

Cosmos 1455 - Pass Details

Date: 26 May 2022
Orbit: 492 x 514 km, 82.5° (Epoch: 06 July)

Event Time Altitude Azimuth Distance (km) Brightness Sun altitude
Rises 00:46:08 0° 359° (N) 2,586 6.9 -20.8°
Reaches altitude 10° 00:48:23 10° 8° (N) 1,698 5.9 -20.6°
Maximum altitude 00:51:50 36° 76° (ENE) 798 3.4 -20.4°
Enters shadow 00:53:29 24° 126° (SE) 1,070 3.7 -20.3°
